[[{"header":{"parameterUnit":"m.s-1","parameterCategory":2,"la1":30.2991,"la2":30.254,"lo1":-89.0895,"lo2":-89.0444,"dy":0.0017,"dx":0.0017,"nx":28,"ny":28,"refTime":"2025-02-05T03:00:00:Z","depth":"0","parameterNumber":2,"parameterNumberName":"U-component_of_CURRENTS"},"data":[0,0,0,0,0,0,0,0,0,0,0,0,0,0,0,0,0,0,0,0,0,0,0,0,0,0,0,0,0,0,0,0,0,0,0,0,0,0,0,0,0,0,0,0,0,0,0,0,0,0,0,0,0,0,0,0,0,0,0.3232,0.3232,0,0.3183,0.3182,0.3181,0.3149,0.3149,0.3149,0.3149,0.3132,0.3131,0.3131,0,0,0,0,0,0,0,0,0,0,0,0,0,0.3135,0.3138,0.3232,0.3232,0.3231,0.3183,0.3182,0.3181,0.3149,0.3149,0.3149,0.3149,0.3132,0.3131,0.3131,0,0,0,0,0,0,0,0,0,0,0,0,0,0.3139,0.3139,0.3232,0.3212,0.321,0.3183,0.3182,0.3181,0.3149,0.3149,0.3149,0.3149,0.3132,0.3132,0.3131,0.3124,0,0,0.3128,0.3128,0,0,0,0,0,0,0,0,0.3139,0.3142,0.3215,0.3213,0.3211,0.3175,0.3142,0.3164,0.3149,0.3169,0.3149,0.315,0.3151,0.3149,0.3135,0.3123,0.3122,0.3128,0.3128,0.3127,0.3127,0,0,0,0,0,0,0,0.3139,0.3143,0.321,0.3215,0.3212,0.3149,0.3151,0.3145,0.3158,0.3167,0.3166,0.3165,0.315,0.3135,0.3134,0.3122,0.3128,0.3128,0.3127,0.3127,0.3116,0.3117,0,0,0,0,0,0,0.316,0.3144,0.3211,0.3208,0.3177,0.3152,0.3154,0.3184,0.3158,0.3154,0.3165,0.3164,0.3137,0.3135,0.3134,0.3136,0.3128,0.3127,0.3126,0.3116,0.3116,0.3117,0,0,0,0,0,0,0.3158,0.3168,0.3213,0.3175,0.3177,0.3155,0.3188,0.3183,0.3172,0.3156,0.3153,0.316,0.3137,0.3135,0.3128,0.3134,0.3126,0.3126,0.3116,0.3116,0.3117,0.3133,0,0,0,0,0,0,0.3156,0.3168,0.319,0.3178,0.318,0.3203,0.3188,0.3182,0.3173,0.3171,0.3151,0.3149,0.3137,0.3129,0.3127,0.3133,0.3125,0.3116,0.3116,0.3116,0.3132,0.3133,0.3135,0,0,0,0,0,0.3154,0.3189,0.3192,0.3199,0.3215,0.3204,0.3198,0.3179,0.3173,0.3169,0.3154,0.315,0.313,0.3128,0.3126,0.3132,0.3116,0.3116,0.3116,0.3131,0.3133,0.3135,0,0,0,0,0,0,0.3153,0.3189,0.3192,0.3237,0.3223,0.32,0.3195,0.3183,0.3166,0.3165,0.3149,0.3146,0.3141,0.3136,0.3134,0.3131,0.3124,0.3124,0.3136,0.3138,0.3139,0.3128,0.3124,0,0,0,0,0,0.3168,0.321,0.3211,0.3243,0.3239,0.3217,0.3209,0.3197,0.3182,0.3174,0.3156,0.3145,0.314,0.3138,0.3127,0.3126,0.3133,0.313,0.3131,0.3133,0.3123,0.3138,0.314,0.3118,0.3118,0.3118,0,0,0.3175,0.32,0.3222,0.3245,0.3232,0.3217,0.3212,0.3204,0.3189,0.3177,0.3151,0.3147,0.3139,0.3134,0.3132,0.3132,0.3147,0.3133,0.3134,0.3123,0.3139,0.3141,0.3143,0.3118,0.3118,0.3118,0,0,0.3182,0.3233,0.3247,0.3244,0.3236,0.3224,0.3226,0.3202,0.3192,0.3173,0.3163,0.3163,0.3143,0.3141,0.314,0.3144,0.3151,0.3145,0.3147,0.3163,0.3165,0.3167,0.32,0.3205,0.315,0.315,0.315,0,0.3177,0.321,0.3242,0.3238,0.3232,0.3229,0.3212,0.3203,0.3176,0.3171,0.3168,0.3145,0.3145,0.3146,0.3147,0.3148,0.3161,0.3142,0.3166,0.3167,0.3169,0.3202,0.3207,0.3151,0.3151,0.3151,0.3151,0,0.3167,0.3196,0.3202,0.3206,0.3205,0.3197,0.3192,0.3185,0.3176,0.3162,0.3156,0.3154,0.3144,0.315,0.3148,0.3161,0.3169,0.3164,0.3162,0.3172,0.3207,0.3211,0.3152,0.3152,0.3152,0.3151,0,0,0.3121,0.3185,0.3174,0.3187,0.3191,0.3187,0.318,0.3168,0.3162,0.3149,0.3137,0.314,0.3144,0.3143,0.3151,0.3165,0.32,0.3168,0.3169,0.3202,0.3249,0.3216,0.3218,0.3198,0.3199,0.3199,0.3277,0,0.3081,0.3095,0.3125,0.312,0.313,0.3146,0.3142,0.314,0.3137,0.3126,0.314,0.3131,0.3143,0.3146,0.3162,0.3177,0.3209,0.318,0.3232,0.3234,0.3204,0.322,0.3046,0.3096,0.3282,0.3283,0.3283,0,0.3026,0.3056,0.3058,0.3113,0.3112,0.3102,0.3108,0.3105,0.3108,0.311,0.3115,0.3119,0.3137,0.3145,0.3194,0.3174,0.3215,0.3235,0.3238,0.3199,0.3207,0.3111,0.3098,0.2917,0.329,0.329,0.3289,0,0.2977,0.3001,0.3014,0.3024,0.3073,0.3072,0.3081,0.309,0.3093,0.3097,0.3095,0.3118,0.3122,0.3168,0.3205,0.3207,0.3254,0.3267,0.3285,0.3285,0.3139,0.3124,0.2951,0.3316,0.3316,0.3315,0.3315,0,0.2938,0.2957,0.2993,0.3007,0.3012,0.3045,0.304,0.3059,0.3065,0.3056,0.3084,0.3079,0.3124,0.3152,0.3204,0.3247,0.3263,0.3284,0.3296,0.3143,0.3128,0.2967,0.2949,0.3318,0.3318,0.3317,0.3317,0,0.2932,0.2949,0.2979,0.3006,0.3005,0.3012,0.3028,0.3022,0.3037,0.3024,0.3026,0.3051,0.3087,0.3139,0.3205,0.3236,0.3185,0.3308,0.3131,0.312,0.2971,0.2965,0.2842,0.2788,0.335,0.3349,0.3349,0,0.2948,0.2954,0.2973,0.2968,0.2987,0.299,0.2984,0.3005,0.2995,0.3,0.2987,0.3018,0.3035,0.312,0.3162,0.3248,0.3151,0.3137,0.3109,0.2928,0.293,0.2871,0.2831,0.2939,0.2935,0.2932,0.293,0,0.2967,0.2963,0.2986,0.2972,0.2958,0.2955,0.2946,0.2934,0.2936,0.2936,0.2929,0.2946,0.3002,0.2981,0.3069,0.31,0.2943,0.3081,0.2915,0.261,0.2511,0.2474,0.2946,0.2903,0.2905,0.2907,0.2909,0.291,0.2967,0.2977,0.2965,0.2966,0.2943,0.2904,0.2881,0.2864,0.2847,0.2798,0.2853,0.2817,0.2767,0.2868,0.2879,0.2693,0.2827,0.2586,0.2606,0.2572,0.2455,0.2883,0.2838,0.284,0.2842,0.2844,0.2846,0,0.2943,0.2952,0.2948,0.292,0.2883,0.2883,0.2836,0.2785,0.2738,0.2695,0.269,0.2552,0.2466,0.2404,0.2269,0.2188,0.2145,0.2092,0.1913,0.1916,0.228,0.2188,0.1968,0.1968,0.1968,0.1969,0.1969,0.1969,0.2918,0.2914,0.2921,0.2853,0.283,0.2743,0.2707,0.2637,0.2582,0.2412,0.2288,0.225,0.2115,0.1889,0.1665,0.1639,0.1534,0.1489,0.1558,0.1719,0.1763,0.1805,0.1704,0.1387,0.1387,0.1057,0.1054,0.1052]},{"header":{"parameterUnit":"m.s-1","parameterCategory":2,"la1":30.2991,"la2":30.254,"lo1":-89.0895,"lo2":-89.0444,"dy":0.0017,"dx":0.0017,"nx":28,"ny":28,"refTime":"2025-02-05T03:00:00:Z","depth":"0","parameterNumber":3,"parameterNumberName":"V-component_of_CURRENTS"},"data":[0,0,0,0,0,0,0,0,0,0,0,0,0,0,0,0,0,0,0,0,0,0,0,0,0,0,0,0,0,0,0,0,0,0,0,0,0,0,0,0,0,0,0,0,0,0,0,0,0,0,0,0,0,0,0,0,0,0,-0.0992,-0.0992,0,-0.1031,-0.1031,-0.1032,-0.1059,-0.1059,-0.1059,-0.1059,-0.1162,-0.1164,-0.1167,0,0,0,0,0,0,0,0,0,0,0,0,0,-0.0918,-0.0919,-0.0992,-0.0992,-0.0992,-0.1031,-0.1031,-0.1032,-0.1059,-0.1059,-0.1059,-0.1059,-0.1161,-0.1164,-0.1167,0,0,0,0,0,0,0,0,0,0,0,0,0,-0.0955,-0.092,-0.0991,-0.1008,-0.101,-0.103,-0.1031,-0.1032,-0.1059,-0.1059,-0.1059,-0.1059,-0.116,-0.1164,-0.1168,-0.1194,0,0,-0.118,-0.1182,0,0,0,0,0,0,0,0,-0.0953,-0.0958,-0.1006,-0.1007,-0.1009,-0.1038,-0.1043,-0.1089,-0.1059,-0.1043,-0.1059,-0.1059,-0.1125,-0.1132,-0.1142,-0.1199,-0.1203,-0.1181,-0.1183,-0.1185,-0.1186,0,0,0,0,0,0,0,-0.095,-0.0956,-0.1009,-0.1006,-0.1008,-0.1006,-0.1012,-0.1051,-0.1086,-0.1044,-0.1046,-0.1046,-0.1126,-0.1137,-0.1144,-0.1205,-0.1181,-0.1184,-0.1187,-0.1188,-0.1291,-0.1291,0,0,0,0,0,0,-0.0942,-0.0954,-0.1008,-0.101,-0.0978,-0.1007,-0.1014,-0.1031,-0.1085,-0.1092,-0.1046,-0.1047,-0.113,-0.1139,-0.1148,-0.1171,-0.1185,-0.1189,-0.1191,-0.129,-0.1291,-0.1291,0,0,0,0,0,0,-0.0941,-0.0947,-0.1007,-0.098,-0.0987,-0.1009,-0.1027,-0.1031,-0.104,-0.1085,-0.1094,-0.105,-0.1131,-0.1142,-0.1184,-0.1176,-0.1191,-0.1194,-0.129,-0.1291,-0.1291,-0.1225,0,0,0,0,0,0,-0.0939,-0.0947,-0.0958,-0.098,-0.0988,-0.1016,-0.1027,-0.1032,-0.104,-0.1042,-0.1092,-0.1101,-0.1132,-0.1177,-0.1188,-0.1182,-0.1198,-0.129,-0.129,-0.1291,-0.1227,-0.1223,-0.122,0,0,0,0,0,-0.0936,-0.0952,-0.0959,-0.0965,-0.1003,-0.1015,-0.102,-0.1036,-0.104,-0.1044,-0.1079,-0.1099,-0.1188,-0.1181,-0.1193,-0.1188,-0.129,-0.129,-0.1291,-0.1228,-0.1224,-0.122,0,0,0,0,0,0,-0.0922,-0.0957,-0.0965,-0.099,-0.0998,-0.1019,-0.1025,-0.1033,-0.1062,-0.1067,-0.1108,-0.112,-0.1151,-0.1184,-0.1176,-0.122,-0.124,-0.1243,-0.1189,-0.1185,-0.1181,-0.1153,-0.1201,0,0,0,0,0,-0.0924,-0.0949,-0.0968,-0.0985,-0.099,-0.1006,-0.1013,-0.1021,-0.1047,-0.1059,-0.1091,-0.113,-0.1163,-0.1185,-0.1221,-0.1251,-0.1235,-0.1255,-0.1252,-0.1248,-0.1235,-0.1212,-0.1204,-0.1293,-0.1293,-0.1293,0,0,-0.0918,-0.0943,-0.0953,-0.0984,-0.0994,-0.1001,-0.1011,-0.1019,-0.1024,-0.1068,-0.1089,-0.1119,-0.1169,-0.1196,-0.1213,-0.1223,-0.121,-0.1249,-0.1245,-0.1234,-0.1212,-0.1203,-0.1195,-0.1293,-0.1293,-0.1293,0,0,-0.0916,-0.0943,-0.0959,-0.0971,-0.0986,-0.0996,-0.0995,-0.1012,-0.102,-0.1044,-0.1071,-0.109,-0.1153,-0.1171,-0.1193,-0.1195,-0.119,-0.1214,-0.1175,-0.1153,-0.1144,-0.1137,-0.1073,-0.1061,-0.1213,-0.1213,-0.1213,0,-0.0898,-0.0934,-0.096,-0.0975,-0.098,-0.0991,-0.0993,-0.1004,-0.103,-0.1028,-0.1045,-0.1094,-0.1136,-0.115,-0.1152,-0.1183,-0.1158,-0.1183,-0.1144,-0.1137,-0.113,-0.1067,-0.1054,-0.121,-0.1211,-0.1211,-0.1211,0,-0.0902,-0.0933,-0.094,-0.0967,-0.0974,-0.0978,-0.099,-0.0992,-0.0999,-0.1003,-0.1011,-0.1053,-0.1075,-0.1093,-0.1128,-0.1106,-0.1097,-0.1136,-0.1145,-0.1116,-0.1053,-0.104,-0.1206,-0.1207,-0.1208,-0.1209,0,0,-0.0843,-0.0926,-0.0924,-0.0942,-0.097,-0.0969,-0.0974,-0.0971,-0.0952,-0.0974,-0.0943,-0.1,-0.0999,-0.1023,-0.1055,-0.1042,-0.0971,-0.1068,-0.1068,-0.0985,-0.0883,-0.0816,-0.0795,-0.1003,-0.1002,-0.1,-0.0844,0,-0.0827,-0.0863,-0.0905,-0.0919,-0.0935,-0.0951,-0.095,-0.0947,-0.0942,-0.0915,-0.0929,-0.0925,-0.098,-0.0977,-0.0972,-0.0976,-0.0941,-0.1007,-0.0941,-0.0938,-0.0866,-0.078,-0.0714,-0.0565,-0.0832,-0.083,-0.0829,0,-0.0804,-0.0838,-0.0858,-0.0905,-0.0907,-0.0908,-0.0886,-0.0889,-0.0862,-0.0855,-0.084,-0.0845,-0.0825,-0.0876,-0.0837,-0.0876,-0.0869,-0.0868,-0.0863,-0.0814,-0.0847,-0.0647,-0.0533,-0.0591,-0.081,-0.0811,-0.0812,0,-0.0744,-0.08,-0.0815,-0.0829,-0.0875,-0.087,-0.0875,-0.086,-0.0839,-0.08,-0.0762,-0.0752,-0.072,-0.0724,-0.0719,-0.0776,-0.0648,-0.0732,-0.0651,-0.0645,-0.0581,-0.0573,-0.0501,-0.0684,-0.0684,-0.0685,-0.0685,0,-0.0716,-0.0731,-0.0788,-0.0796,-0.0784,-0.0827,-0.0792,-0.0793,-0.076,-0.0704,-0.0721,-0.0658,-0.0683,-0.0621,-0.0648,-0.0573,-0.0586,-0.0602,-0.0593,-0.0555,-0.0546,-0.0592,-0.0657,-0.0679,-0.068,-0.0681,-0.0682,0,-0.0667,-0.0711,-0.0727,-0.0762,-0.0766,-0.075,-0.0747,-0.071,-0.0699,-0.0615,-0.0594,-0.0553,-0.0469,-0.0459,-0.0423,-0.0453,-0.0407,-0.039,-0.0314,-0.03,-0.0317,-0.0381,-0.0259,-0.0261,-0.028,-0.0277,-0.0275,0,-0.0648,-0.0655,-0.068,-0.0668,-0.0687,-0.0676,-0.0655,-0.0665,-0.0623,-0.0544,-0.0484,-0.0383,-0.0292,-0.0185,-0.0184,-0.0141,-0.0249,-0.0097,-0.0214,-0.0261,-0.0328,-0.0371,-0.0389,-0.0089,-0.0085,-0.0082,-0.008,0,-0.0598,-0.0605,-0.0615,-0.0593,-0.0574,-0.0558,-0.0536,-0.0495,-0.0475,-0.0397,-0.0275,-0.0195,-0.0076,0.0026,0.0077,0.0057,-0.0109,-0.0036,-0.0111,-0.0172,-0.0186,-0.0204,-0.0233,-0.0053,-0.0056,-0.0058,-0.0059,-0.006,-0.0539,-0.0527,-0.0525,-0.0507,-0.048,-0.0434,-0.0395,-0.0345,-0.0256,-0.0105,-0.0081,0.0109,0.0173,0.0265,0.0213,0.0168,0.0099,0.0106,0.0041,0.0007,-0.0018,0.004,0.0228,0.0227,0.0226,0.0225,0.0224,0,-0.0463,-0.0463,-0.0436,-0.0407,-0.0354,-0.0368,-0.0305,-0.0241,-0.0107,0.0088,0.0223,0.0437,0.0475,0.0436,0.0368,0.0259,0.0174,0.0181,0.0103,0.0082,0.0129,0.0109,0.0313,0.0313,0.0313,0.0313,0.0313,0.0313,-0.0414,-0.0387,-0.0391,-0.03,-0.0268,-0.0187,-0.0144,-0.0039,0.0102,0.0392,0.0609,0.0739,0.0743,0.047,0.0286,0.0222,0.0094,0.0128,0.0032,0.0005,-0.001,-0.0024,-0.0057,0.0109,0.0109,0.0027,0.0025,0.0024]}],[{"header":{"parameterUnit":"m.s-1","parameterCategory":2,"la1":30.2991,"la2":30.254,"lo1":-89.0895,"lo2":-89.0444,"dy":0.0017,"dx":0.0017,"nx":28,"ny":28,"refTime":"2025-02-05T03:00:00:Z","depth":"2","parameterNumber":2,"parameterNumberName":"U-component_of_CURRENTS"},"data":[0,0,0,0,0,0,0,0,0,0,0,0,0,0,0,0,0,0,0,0,0,0,0,0,0,0,0,0,0,0,0,0,0,0,0,0,0,0,0,0,0,0,0,0,0,0,0,0,0,0,0,0,0,0,0,0,0,0,0.1318,0.1318,0,0.1345,0.1345,0.1345,0.1373,0.1373,0.1374,0.1374,0.1423,0.1424,0.1425,0,0,0,0,0,0,0,0,0,0,0,0,0,0.129,0.1291,0.1318,0.1318,0.1318,0.1345,0.1345,0.1345,0.1373,0.1373,0.1374,0.1374,0.1423,0.1424,0.1425,0,0,0,0,0,0,0,0,0,0,0,0,0,0.1308,0.1291,0.1318,0.1335,0.1337,0.1345,0.1345,0.1345,0.1373,0.1373,0.1374,0.1374,0.1423,0.1424,0.1426,0.1424,0,0,0.143,0.1431,0,0,0,0,0,0,0,0,0.1307,0.1309,0.1332,0.1334,0.1336,0.1356,0.1353,0.1373,0.1373,0.1359,0.1374,0.1375,0.1402,0.1406,0.1409,0.1426,0.1428,0.143,0.1431,0.1432,0.1432,0,0,0,0,0,0,0,0.1306,0.1308,0.1329,0.1333,0.1335,0.1342,0.1345,0.1357,0.1378,0.1361,0.1363,0.1365,0.1404,0.1408,0.1411,0.1429,0.143,0.1432,0.1432,0.1433,0.1523,0.1524,0,0,0,0,0,0,0.1302,0.1307,0.1328,0.1329,0.1322,0.1342,0.1345,0.1349,0.1378,0.1382,0.1365,0.1366,0.1405,0.1409,0.1413,0.1483,0.1432,0.1433,0.1434,0.1521,0.1523,0.1525,0,0,0,0,0,0,0.1301,0.1303,0.1327,0.1319,0.1322,0.1341,0.1346,0.1349,0.1382,0.138,0.1386,0.1397,0.1406,0.1411,0.1439,0.1483,0.1434,0.1435,0.152,0.1522,0.1524,0.158,0,0,0,0,0,0,0.13,0.1303,0.1321,0.1318,0.1322,0.135,0.1345,0.1349,0.1381,0.1384,0.1409,0.1413,0.1406,0.1437,0.1441,0.1484,0.1436,0.1518,0.1521,0.1523,0.1576,0.1583,0.159,0,0,0,0,0,0.1299,0.131,0.1321,0.1325,0.1341,0.1351,0.1355,0.137,0.1383,0.1401,0.1412,0.1414,0.1458,0.1439,0.1443,0.1488,0.1516,0.152,0.1523,0.1573,0.1582,0.159,0,0,0,0,0,0,0.1321,0.1314,0.1326,0.134,0.1357,0.1356,0.1376,0.1388,0.1412,0.1424,0.1423,0.1427,0.1477,0.147,0.1449,0.1523,0.1492,0.1496,0.1528,0.1537,0.1544,0.1543,0.1438,0,0,0,0,0,0.1331,0.1331,0.1339,0.1356,0.1365,0.1379,0.1393,0.1405,0.1416,0.143,0.1446,0.1465,0.1489,0.1502,0.1521,0.1551,0.1565,0.1586,0.1593,0.1599,0.1602,0.1683,0.1698,0.1536,0.1536,0.1536,0,0,0.1341,0.1342,0.1344,0.136,0.1374,0.1379,0.139,0.1417,0.1431,0.1431,0.1468,0.1496,0.1505,0.1544,0.1566,0.1545,0.1648,0.1603,0.1608,0.1608,0.1688,0.1704,0.1719,0.1538,0.1538,0.1537,0,0,0.1353,0.137,0.1373,0.1381,0.1404,0.1407,0.1422,0.1443,0.1469,0.1499,0.1513,0.1563,0.1587,0.1608,0.1618,0.1674,0.1689,0.1693,0.1722,0.1801,0.1816,0.1828,0.1843,0.1857,0.1689,0.1689,0.1689,0,0.1367,0.1372,0.1381,0.1386,0.1394,0.1419,0.143,0.145,0.1482,0.1517,0.1519,0.1605,0.1616,0.1672,0.1691,0.1693,0.1722,0.1688,0.1812,0.1825,0.1837,0.1849,0.1864,0.1692,0.1692,0.1691,0.1691,0,0.1375,0.1382,0.1387,0.1391,0.1408,0.1422,0.1443,0.1482,0.1518,0.1548,0.1636,0.1661,0.1716,0.1734,0.1724,0.1823,0.1809,0.1819,0.1791,0.1857,0.1865,0.1879,0.1696,0.1695,0.1694,0.1694,0,0,0.1377,0.1387,0.1391,0.1399,0.1412,0.1429,0.146,0.1507,0.1553,0.161,0.1677,0.1737,0.1788,0.1802,0.1825,0.1882,0.1982,0.1889,0.1892,0.1903,0.2128,0.1937,0.1933,0.2031,0.2035,0.2037,0.209,0,0.1378,0.1389,0.1395,0.1409,0.1412,0.1443,0.1472,0.1526,0.158,0.165,0.172,0.1787,0.1802,0.1844,0.1914,0.1963,0.2027,0.1964,0.2062,0.2064,0.1887,0.1946,0.183,0.1853,0.2104,0.2106,0.2108,0,0.1369,0.138,0.1397,0.1423,0.1434,0.1454,0.1527,0.1558,0.1652,0.1702,0.1794,0.1844,0.1932,0.1941,0.2076,0.2043,0.2099,0.2132,0.2136,0.1948,0.1899,0.1833,0.1869,0.2131,0.2129,0.2128,0.2126,0,0.1355,0.1374,0.1394,0.1397,0.1435,0.1475,0.1511,0.1593,0.1633,0.1745,0.1784,0.1909,0.195,0.2071,0.2119,0.2128,0.2244,0.2265,0.2145,0.2131,0.2041,0.2011,0.2391,0.2391,0.2391,0.2391,0.239,0,0.1328,0.1344,0.1398,0.1403,0.1453,0.1488,0.1555,0.1609,0.1685,0.1727,0.1822,0.1865,0.1993,0.2056,0.2141,0.2149,0.227,0.2152,0.2143,0.2048,0.202,0.2271,0.2256,0.2392,0.2392,0.2392,0.2391,0,0.1303,0.1325,0.1349,0.1412,0.1437,0.1483,0.1555,0.1602,0.1671,0.172,0.1751,0.1839,0.1909,0.1994,0.2137,0.212,0.2185,0.2169,0.1997,0.1964,0.2018,0.2006,0.2056,0.205,0.2045,0.2041,0.2037,0,0.1295,0.13,0.136,0.1388,0.1423,0.1488,0.1528,0.1596,0.1619,0.1693,0.1701,0.1771,0.1804,0.1883,0.1903,0.1968,0.2075,0.184,0.1828,0.2002,0.199,0.1986,0.1981,0.1743,0.1737,0.1732,0.1729,0,0.1293,0.1316,0.135,0.1386,0.1432,0.1456,0.1505,0.1513,0.1568,0.1603,0.1631,0.1667,0.1692,0.1663,0.1662,0.1702,0.1811,0.1737,0.2032,0.1801,0.1699,0.1689,0.1697,0.1687,0.1691,0.1694,0.1696,0.1698,0.1317,0.1332,0.1369,0.1387,0.143,0.1418,0.1418,0.1439,0.1454,0.1447,0.1506,0.1489,0.1486,0.1415,0.1408,0.1401,0.1535,0.1499,0.152,0.1543,0.1453,0.1344,0.1246,0.1248,0.1249,0.125,0.1251,0,0.134,0.1344,0.1366,0.1375,0.1375,0.1405,0.1392,0.1345,0.133,0.1317,0.1315,0.1171,0.1143,0.1176,0.1104,0.1079,0.1146,0.104,0.1147,0.1188,0.1224,0.1123,0.0826,0.0824,0.0823,0.0822,0,0,0.1359,0.1363,0.1333,0.1306,0.1319,0.1288,0.1267,0.118,0.113,0.1053,0.1013,0.1045,0.1095,0.0914,0.0911,0.0858,0.1018,0.0827,0.1172,0.1336,0.1371,0.1491,0.1378,0,0,0,0,0]},{"header":{"parameterUnit":"m.s-1","parameterCategory":2,"la1":30.2991,"la2":30.254,"lo1":-89.0895,"lo2":-89.0444,"dy":0.0017,"dx":0.0017,"nx":28,"ny":28,"refTime":"2025-02-05T03:00:00:Z","depth":"2","parameterNumber":3,"parameterNumberName":"V-component_of_CURRENTS"},"data":[0,0,0,0,0,0,0,0,0,0,0,0,0,0,0,0,0,0,0,0,0,0,0,0,0,0,0,0,0,0,0,0,0,0,0,0,0,0,0,0,0,0,0,0,0,0,0,0,0,0,0,0,0,0,0,0,0,0,0.031,0.031,0,0.0316,0.0316,0.0316,0.0275,0.0274,0.0272,0.0271,0.0175,0.0174,0.0173,0,0,0,0,0,0,0,0,0,0,0,0,0,0.0257,0.0258,0.031,0.031,0.031,0.0316,0.0316,0.0317,0.0275,0.0274,0.0272,0.0271,0.0176,0.0174,0.0172,0,0,0,0,0,0,0,0,0,0,0,0,0,0.0274,0.0259,0.031,0.029,0.0289,0.0316,0.0316,0.0317,0.0275,0.0274,0.0272,0.027,0.0176,0.0174,0.0172,0.0194,0,0,0.0166,0.0165,0,0,0,0,0,0,0,0,0.0273,0.0276,0.0293,0.0292,0.029,0.0293,0.0263,0.0271,0.0276,0.028,0.0271,0.0269,0.0206,0.0202,0.0209,0.019,0.0186,0.0165,0.0164,0.0163,0.0163,0,0,0,0,0,0,0,0.0272,0.0275,0.0313,0.0293,0.0291,0.0279,0.028,0.0264,0.0252,0.028,0.0277,0.0278,0.0205,0.0211,0.0206,0.0184,0.0165,0.0164,0.0162,0.0161,0.0143,0.0144,0,0,0,0,0,0,0.0273,0.0274,0.0312,0.0313,0.0277,0.0282,0.0282,0.0294,0.0254,0.0247,0.028,0.0276,0.0215,0.0208,0.0202,0.0186,0.0163,0.0161,0.016,0.0142,0.0143,0.0144,0,0,0,0,0,0,0.0272,0.0277,0.0312,0.0293,0.0296,0.0284,0.0298,0.0295,0.0278,0.0255,0.0245,0.0263,0.0214,0.0205,0.0173,0.0183,0.016,0.0158,0.0141,0.0142,0.0143,0.0179,0,0,0,0,0,0,0.0271,0.0277,0.0279,0.0293,0.0297,0.0323,0.03,0.0296,0.0283,0.0277,0.0238,0.0228,0.0212,0.0177,0.0171,0.018,0.0156,0.014,0.0142,0.0143,0.0177,0.0181,0.0185,0,0,0,0,0,0.0269,0.0282,0.028,0.0283,0.0303,0.0324,0.0325,0.031,0.0283,0.0285,0.0251,0.0228,0.0183,0.0176,0.0169,0.0177,0.0139,0.0141,0.0143,0.0175,0.018,0.0185,0,0,0,0,0,0,0.025,0.0279,0.0277,0.0294,0.0305,0.0316,0.0313,0.0303,0.0281,0.0262,0.0231,0.0221,0.0201,0.0186,0.0178,0.0178,0.0161,0.0161,0.0188,0.0192,0.0196,0.0233,0.0155,0,0,0,0,0,0.0251,0.0272,0.0291,0.0302,0.0307,0.0306,0.0307,0.03,0.0287,0.0275,0.025,0.0224,0.0212,0.0195,0.0183,0.0176,0.0183,0.018,0.0185,0.0188,0.0215,0.0239,0.0248,0.015,0.015,0.015,0,0,0.0248,0.0264,0.0275,0.03,0.0303,0.0326,0.0301,0.0303,0.0317,0.0268,0.0261,0.0233,0.0213,0.021,0.02,0.0191,0.0215,0.019,0.0193,0.0219,0.0242,0.0252,0.026,0.0151,0.0151,0.0151,0,0,0.0257,0.0263,0.0285,0.0301,0.0311,0.0322,0.0319,0.0323,0.0316,0.0312,0.0283,0.027,0.0238,0.0243,0.0238,0.0261,0.0237,0.0239,0.0286,0.0309,0.0317,0.0325,0.0328,0.0336,0.024,0.024,0.024,0,0.0249,0.0282,0.0291,0.0316,0.0331,0.0321,0.0346,0.0352,0.0343,0.0349,0.0311,0.03,0.027,0.0295,0.0295,0.0273,0.0267,0.0264,0.0315,0.0323,0.0331,0.0331,0.034,0.0242,0.0242,0.0242,0.0242,0,0.0279,0.0303,0.0314,0.0353,0.0371,0.0387,0.0404,0.041,0.0392,0.0399,0.0403,0.0374,0.0373,0.0356,0.0325,0.0363,0.0334,0.0317,0.0304,0.0343,0.0341,0.0349,0.0245,0.0244,0.0244,0.0243,0,0,0.0271,0.0329,0.0331,0.0361,0.0391,0.0415,0.0443,0.0479,0.0506,0.0486,0.0527,0.0497,0.0476,0.0471,0.0434,0.0446,0.0472,0.0396,0.0396,0.0401,0.05,0.0397,0.0395,0.045,0.0452,0.0454,0.0471,0,0.029,0.0355,0.0373,0.0431,0.0468,0.048,0.0518,0.0545,0.0554,0.0591,0.0576,0.0587,0.0522,0.0511,0.0517,0.0489,0.0497,0.0468,0.0461,0.0461,0.0367,0.0403,0.0382,0.0388,0.0478,0.048,0.0481,0,0.0316,0.0358,0.0423,0.0493,0.0508,0.0532,0.0597,0.0627,0.0676,0.068,0.0695,0.0685,0.0701,0.0637,0.0631,0.0606,0.0561,0.0536,0.0535,0.044,0.0374,0.0368,0.0399,0.0494,0.0493,0.0492,0.0491,0,0.0333,0.0396,0.0452,0.0474,0.0546,0.0565,0.0591,0.0643,0.0685,0.0733,0.077,0.0782,0.0784,0.0758,0.0685,0.0658,0.0677,0.0639,0.0512,0.0504,0.049,0.0475,0.0651,0.0651,0.0651,0.0651,0.0651,0,0.037,0.041,0.0456,0.0492,0.0544,0.0578,0.0636,0.0667,0.0733,0.0802,0.0804,0.085,0.0811,0.0809,0.074,0.0646,0.0719,0.0539,0.0511,0.0495,0.0483,0.058,0.0571,0.0652,0.0652,0.0652,0.0651,0,0.0395,0.0429,0.049,0.0547,0.0558,0.0589,0.065,0.0715,0.0752,0.0848,0.0868,0.0908,0.0885,0.0844,0.0799,0.0699,0.0636,0.0582,0.0549,0.0516,0.0435,0.0428,0.0458,0.0454,0.0452,0.0449,0.0447,0,0.0421,0.0456,0.0518,0.0545,0.0561,0.0603,0.0656,0.071,0.0783,0.0878,0.0941,0.0946,0.0947,0.0837,0.0691,0.0571,0.0586,0.0442,0.0387,0.045,0.042,0.0418,0.0415,0.0385,0.0383,0.0381,0.0379,0,0.0455,0.0468,0.0518,0.0578,0.0621,0.0689,0.0753,0.0805,0.0893,0.0958,0.102,0.1019,0.0908,0.0756,0.0571,0.0481,0.0459,0.0393,0.0515,0.0411,0.0376,0.0347,0.0349,0.0363,0.0364,0.0366,0.0366,0.0367,0.0461,0.0492,0.0553,0.0619,0.0673,0.0758,0.0801,0.0877,0.0959,0.1039,0.105,0.1017,0.0881,0.0594,0.0455,0.0292,0.0308,0.0242,0.0251,0.0262,0.0224,0.0183,0.0127,0.0127,0.0128,0.0128,0.0128,0,0.0476,0.0525,0.0593,0.0673,0.074,0.0763,0.0873,0.0914,0.0975,0.1016,0.1032,0.0864,0.0702,0.0556,0.0281,0.0122,0.0149,0.0082,0.0162,0.0178,0.0192,0.0155,0.0037,0.0037,0.0037,0.0036,0,0,0.0484,0.0553,0.0611,0.0723,0.0761,0.0844,0.0885,0.0927,0.0953,0.0941,0.0898,0.0891,0.0701,0.0495,0.0315,0.0167,0.0203,0.0134,0.0215,0.0343,0.036,0.0284,0.0241,0,0,0,0,0]}],[{"header":{"parameterUnit":"m.s-1","parameterCategory":2,"la1":30.2991,"la2":30.254,"lo1":-89.0895,"lo2":-89.0444,"dy":0.0017,"dx":0.0017,"nx":28,"ny":28,"refTime":"2025-02-05T03:00:00:Z","depth":"4","parameterNumber":2,"parameterNumberName":"U-component_of_CURRENTS"},"data":[0,0,0,0,0,0,0,0,0,0,0,0,0,0,0,0,0,0,0,0,0,0,0,0,0,0,0,0,0,0,0,0,0,0,0,0,0,0,0,0,0,0,0,0,0,0,0,0,0,0,0,0,0,0,0,0,0,0,0.007,0.007,0,0.0062,0.0062,0.0062,0.0065,0.0065,0.0065,0.0066,0.0058,0.0058,0.0057,0,0,0,0,0,0,0,0,0,0,0,0,0,0.0086,0.0086,0.007,0.0069,0.0069,0.0062,0.0062,0.0062,0.0065,0.0065,0.0065,0.0066,0.0058,0.0058,0.0057,0,0,0,0,0,0,0,0,0,0,0,0,0,0.0079,0.0086,0.007,0.007,0.007,0.0062,0.0062,0.0062,0.0065,0.0065,0.0065,0.0066,0.0058,0.0058,0.0057,0.005,0,0,0.0056,0.0055,0,0,0,0,0,0,0,0,0.008,0.0079,0.007,0.007,0.0069,0.0064,0.0065,0.0057,0.0065,0.0068,0.0066,0.0066,0.0059,0.0059,0.0058,0.005,0.0049,0.0056,0.0055,0.0055,0.0055,0,0,0,0,0,0,0,0.008,0.0079,0.0067,0.007,0.0069,0.0069,0.0069,0.0063,0.0063,0.0067,0.0067,0.0065,0.0059,0.0058,0.0058,0.0049,0.0056,0.0055,0.0055,0.0055,0.0106,0.0107,0,0,0,0,0,0,0.0079,0.0079,0.0067,0.0067,0.0074,0.0069,0.0068,0.0066,0.0063,0.0063,0.0065,0.0065,0.0059,0.0058,0.0057,0.0107,0.0055,0.0055,0.0054,0.0104,0.0106,0.0108,0,0,0,0,0,0,0.008,0.0078,0.0068,0.0072,0.0071,0.0068,0.0066,0.0066,0.0072,0.0061,0.0061,0.0072,0.0059,0.0058,0.008,0.0104,0.0054,0.0054,0.0102,0.0105,0.0107,0.0168,0,0,0,0,0,0,0.008,0.0079,0.008,0.0072,0.0071,0.0073,0.0066,0.0066,0.0069,0.007,0.0067,0.0066,0.0059,0.0081,0.008,0.0103,0.0054,0.01,0.0103,0.0106,0.0164,0.0172,0.018,0,0,0,0,0,0.0081,0.008,0.008,0.0079,0.0072,0.0074,0.0073,0.0072,0.007,0.0077,0.0088,0.0066,0.01,0.0082,0.008,0.0103,0.0099,0.0102,0.0106,0.0161,0.0171,0.0179,0,0,0,0,0,0,0.0089,0.008,0.008,0.0077,0.0081,0.0074,0.0079,0.0077,0.0089,0.0094,0.0084,0.0085,0.0117,0.0103,0.0083,0.013,0.0096,0.01,0.0139,0.0148,0.0156,0.0168,0.0053,0,0,0,0,0,0.0091,0.009,0.0085,0.0086,0.0087,0.0085,0.0086,0.0087,0.0094,0.0099,0.0102,0.011,0.0128,0.0132,0.0143,0.016,0.0156,0.0176,0.0183,0.019,0.02,0.0223,0.0234,0.012,0.012,0.012,0,0,0.0097,0.0091,0.0091,0.0088,0.009,0.0099,0.0087,0.0094,0.0108,0.0096,0.0123,0.0138,0.0141,0.0174,0.0185,0.0164,0.0221,0.0195,0.02,0.0207,0.0228,0.0239,0.0249,0.0123,0.0122,0.0122,0,0,0.0107,0.0102,0.0105,0.011,0.0114,0.0114,0.0118,0.0123,0.0132,0.0158,0.0165,0.02,0.0208,0.023,0.0237,0.0291,0.0266,0.029,0.0333,0.0355,0.0364,0.0373,0.0383,0.0391,0.0289,0.0289,0.0289,0,0.0119,0.0112,0.0109,0.0117,0.0124,0.0123,0.0136,0.0145,0.0161,0.0182,0.0177,0.0241,0.0239,0.0294,0.0317,0.0309,0.0312,0.0294,0.0365,0.0373,0.038,0.0388,0.0397,0.0292,0.0292,0.0292,0.0291,0,0.0117,0.0128,0.0133,0.0142,0.0157,0.0163,0.0178,0.0201,0.0213,0.0228,0.0291,0.0311,0.0353,0.0358,0.0352,0.0412,0.0395,0.0375,0.0338,0.0395,0.04,0.0408,0.0297,0.0296,0.0295,0.0294,0,0,0.0113,0.0127,0.0133,0.0145,0.0167,0.0177,0.0216,0.0247,0.0282,0.0314,0.0366,0.0414,0.0439,0.0451,0.0459,0.0477,0.0528,0.045,0.045,0.0456,0.0573,0.0515,0.0517,0.0519,0.0521,0.0522,0.0556,0,0.0114,0.0126,0.014,0.0173,0.0182,0.0212,0.0253,0.0292,0.0326,0.0377,0.0418,0.0469,0.0468,0.05,0.0526,0.0529,0.0552,0.052,0.0521,0.0522,0.0459,0.0526,0.0528,0.0562,0.0563,0.0565,0.0565,0,0.0109,0.0116,0.0139,0.019,0.02,0.023,0.0299,0.0339,0.0414,0.0452,0.0523,0.0542,0.0604,0.058,0.0635,0.0615,0.0608,0.06,0.0601,0.0531,0.0478,0.0494,0.0579,0.0578,0.0577,0.0576,0.0575,0,0.0092,0.0124,0.0138,0.015,0.0204,0.0241,0.0285,0.0367,0.0416,0.0507,0.0551,0.0622,0.067,0.0679,0.0672,0.0659,0.0704,0.0678,0.0624,0.0619,0.063,0.0621,0.0715,0.0715,0.0715,0.0715,0.0715,0,0.0083,0.01,0.0131,0.014,0.0186,0.0241,0.032,0.0378,0.0472,0.054,0.0596,0.0651,0.0697,0.0718,0.0698,0.069,0.0731,0.065,0.0633,0.0655,0.0649,0.0636,0.0626,0.0716,0.0716,0.0716,0.0716,0,0.0071,0.0086,0.0103,0.0152,0.0181,0.022,0.0334,0.0386,0.0486,0.0576,0.0606,0.0692,0.073,0.0742,0.0759,0.0728,0.0709,0.0689,0.0716,0.0696,0.0603,0.0596,0.0647,0.0646,0.0645,0.0643,0.0643,0,0.0059,0.0063,0.0105,0.012,0.0146,0.022,0.0278,0.0391,0.0452,0.0588,0.0619,0.069,0.0734,0.0726,0.0734,0.0709,0.0688,0.0678,0.0648,0.0623,0.0601,0.0596,0.0591,0.064,0.064,0.064,0.0639,0,0.0034,0.0048,0.0061,0.0092,0.0139,0.0201,0.029,0.0336,0.0472,0.0551,0.063,0.0651,0.0698,0.0705,0.0697,0.0666,0.0685,0.0664,0.0666,0.0638,0.0615,0.0593,0.059,0.0635,0.0635,0.0636,0.0636,0,0.0013,0.0017,0.0034,0.0065,0.0114,0.0168,0.0226,0.0311,0.0394,0.0546,0.0564,0.0633,0.0705,0.0682,0.066,0.0643,0.0628,0.0595,0.0601,0.0606,0.0572,0.0535,0.0533,0,0,0,0,0,-0.0008,0.0,0.001,0.0044,0.0084,0.0122,0.0226,0.0287,0.0416,0.0459,0.0521,0.0557,0.0577,0.0599,0.0569,0.0609,0.0605,0.0568,0.0565,0.0609,0.0614,0.0575,0,0,0,0,0,0,-0.0024,-0.0009,-0.0002,0.0019,0.0036,0.0095,0.0159,0.024,0.0283,0.0403,0.0416,0.05,0.0517,0.0579,0.0548,0.0552,0.0533,0.0608,0.0606,0.0606,0.0611,0.0615,0.0576,0,0,0,0,0]},{"header":{"parameterUnit":"m.s-1","parameterCategory":2,"la1":30.2991,"la2":30.254,"lo1":-89.0895,"lo2":-89.0444,"dy":0.0017,"dx":0.0017,"nx":28,"ny":28,"refTime":"2025-02-05T03:00:00:Z","depth":"4","parameterNumber":3,"parameterNumberName":"V-component_of_CURRENTS"},"data":[0,0,0,0,0,0,0,0,0,0,0,0,0,0,0,0,0,0,0,0,0,0,0,0,0,0,0,0,0,0,0,0,0,0,0,0,0,0,0,0,0,0,0,0,0,0,0,0,0,0,0,0,0,0,0,0,0,0,0.0403,0.0404,0,0.0415,0.0415,0.0415,0.0428,0.0428,0.0429,0.0429,0.0442,0.0442,0.0442,0,0,0,0,0,0,0,0,0,0,0,0,0,0.0347,0.0349,0.0403,0.0404,0.0404,0.0415,0.0415,0.0415,0.0428,0.0428,0.0429,0.0429,0.0442,0.0442,0.0442,0,0,0,0,0,0,0,0,0,0,0,0,0,0.0366,0.0349,0.0403,0.0413,0.0414,0.0415,0.0415,0.0415,0.0428,0.0428,0.0429,0.0429,0.0442,0.0442,0.0442,0.0434,0,0,0.0442,0.0442,0,0,0,0,0,0,0,0,0.0365,0.0368,0.0411,0.0412,0.0413,0.0422,0.04,0.0422,0.0428,0.0421,0.0429,0.0429,0.0436,0.0436,0.0436,0.0435,0.0435,0.0442,0.0442,0.0442,0.0442,0,0,0,0,0,0,0,0.0363,0.0367,0.0407,0.0411,0.0412,0.0401,0.0404,0.0404,0.0425,0.0422,0.0423,0.0426,0.0436,0.0436,0.0436,0.0435,0.0442,0.0442,0.0443,0.0443,0.0437,0.0437,0,0,0,0,0,0,0.0367,0.0366,0.0407,0.0407,0.0391,0.0402,0.0405,0.0417,0.0425,0.0427,0.0426,0.0427,0.0435,0.0436,0.0437,0.0441,0.0442,0.0443,0.0443,0.0438,0.0437,0.0437,0,0,0,0,0,0,0.0365,0.037,0.0406,0.0387,0.0391,0.0403,0.0416,0.0417,0.0426,0.0428,0.043,0.0434,0.0436,0.0437,0.0444,0.0441,0.0443,0.0443,0.0438,0.0437,0.0437,0.0442,0,0,0,0,0,0,0.0364,0.037,0.0383,0.0388,0.0392,0.0412,0.0416,0.0417,0.0427,0.0429,0.0436,0.0437,0.0436,0.0444,0.0444,0.0442,0.0443,0.0438,0.0438,0.0437,0.0442,0.0441,0.0441,0,0,0,0,0,0.0362,0.0378,0.0384,0.0389,0.0409,0.0413,0.0414,0.0422,0.0428,0.0431,0.0437,0.0437,0.0442,0.0444,0.0445,0.0442,0.0438,0.0438,0.0437,0.0442,0.0441,0.0441,0,0,0,0,0,0,0.0358,0.0381,0.0387,0.041,0.0413,0.0416,0.0421,0.0426,0.0433,0.0438,0.0439,0.044,0.0444,0.0442,0.0445,0.0438,0.0438,0.0438,0.0441,0.0441,0.0441,0.0437,0.0443,0,0,0,0,0,0.0364,0.0387,0.0394,0.0413,0.0413,0.0418,0.0422,0.0428,0.0433,0.0437,0.0442,0.0443,0.0439,0.0442,0.044,0.044,0.0414,0.0436,0.0436,0.0436,0.0432,0.0381,0.0375,0.0436,0.0436,0.0436,0,0,0.0365,0.0384,0.0395,0.0414,0.0416,0.0417,0.0421,0.043,0.0432,0.0437,0.0444,0.0445,0.0439,0.0438,0.0439,0.0439,0.0406,0.0435,0.0435,0.0432,0.038,0.0374,0.0368,0.0435,0.0435,0.0435,0,0,0.0376,0.0395,0.0412,0.0414,0.0425,0.0425,0.0429,0.0435,0.0439,0.0446,0.0445,0.0442,0.0448,0.0435,0.0431,0.0427,0.0407,0.0432,0.0428,0.0379,0.0373,0.0368,0.0332,0.0323,0.0431,0.0431,0.0431,0,0.0376,0.04,0.0414,0.0423,0.0427,0.0429,0.0434,0.0431,0.0441,0.0442,0.0451,0.0444,0.044,0.0424,0.0425,0.0425,0.0401,0.0431,0.0377,0.0372,0.0366,0.033,0.0321,0.0431,0.0431,0.0431,0.0431,0,0.0387,0.0407,0.0412,0.0428,0.0434,0.0438,0.0436,0.044,0.0447,0.0445,0.0442,0.0435,0.0432,0.0426,0.0427,0.0391,0.0388,0.0382,0.0377,0.036,0.0324,0.0314,0.0432,0.0432,0.0432,0.0431,0,0,0.0387,0.0416,0.0421,0.0429,0.0438,0.0444,0.0443,0.0441,0.0441,0.0441,0.0436,0.0424,0.0426,0.042,0.0415,0.0372,0.0314,0.0366,0.0363,0.0329,0.0213,0.0219,0.0208,0.03,0.0298,0.0297,0.0205,0,0.0389,0.0416,0.043,0.0443,0.0448,0.0451,0.0455,0.0456,0.0451,0.0444,0.0423,0.0418,0.0421,0.0424,0.0382,0.0331,0.0288,0.034,0.0236,0.0233,0.0238,0.0196,0.0291,0.0197,0.0195,0.0193,0.0192,0,0.0389,0.0412,0.0437,0.046,0.0463,0.0477,0.0485,0.0488,0.0469,0.0471,0.0455,0.0433,0.0387,0.0387,0.0285,0.0321,0.027,0.0224,0.0219,0.0215,0.0219,0.0216,0.0173,0.0175,0.0176,0.0177,0.0179,0,0.0383,0.0412,0.0439,0.0444,0.0469,0.0489,0.0506,0.0504,0.0509,0.0487,0.0482,0.0427,0.0411,0.0323,0.0244,0.0257,0.0121,0.0125,0.0079,0.008,0.0102,0.0108,0.0038,0.0039,0.0039,0.0039,0.0039,0,0.0375,0.0395,0.0447,0.0458,0.0499,0.0511,0.0546,0.055,0.0549,0.055,0.0507,0.0483,0.0393,0.0308,0.0228,0.0125,0.0107,0.0065,0.0048,0.0108,0.0116,0.0095,0.0102,0.0036,0.0036,0.0037,0.0038,0,0.0364,0.0395,0.0426,0.0474,0.0501,0.0533,0.0591,0.0599,0.0603,0.0599,0.059,0.0519,0.0412,0.0307,0.0165,0.0119,0.0004,-0.0026,0.0047,0.0038,-0.0,0.0009,-0.0098,-0.0099,-0.01,-0.01,-0.0101,0,0.0363,0.038,0.0448,0.0482,0.0514,0.0572,0.061,0.0638,0.0642,0.0613,0.0598,0.0503,0.0446,0.0249,0.0144,-0.002,-0.0029,-0.0077,-0.0044,-0.0013,-0.0019,-0.0009,0.0001,-0.0102,-0.0102,-0.0102,-0.0102,0,0.0357,0.0386,0.0411,0.0481,0.0537,0.0597,0.0649,0.0655,0.0668,0.0667,0.0597,0.0496,0.0384,0.0242,0.0127,0.001,-0.0047,-0.0084,-0.0083,-0.0053,-0.0018,-0.0021,-0.0011,-0.0104,-0.0104,-0.0104,-0.0104,0,0.0355,0.037,0.041,0.0464,0.0541,0.0599,0.0632,0.064,0.0653,0.0622,0.0596,0.0476,0.042,0.0256,0.0134,0.0031,0.0011,-0.0006,-0.001,-0.0009,0.0052,0.0112,0.0036,0,0,0,0,0,0.0353,0.0358,0.0393,0.0454,0.0527,0.0582,0.0641,0.0659,0.0674,0.0629,0.0617,0.0507,0.034,0.0258,0.0154,0.0116,-0.0012,-0.0008,-0.0035,-0.0116,-0.0114,-0.0056,0,0,0,0,0,0,0.0347,0.0376,0.0374,0.0438,0.0485,0.0568,0.0615,0.0624,0.0601,0.0599,0.0504,0.0487,0.0313,0.0394,0.015,0.0119,0.0091,-0.0081,-0.0083,-0.0118,-0.0116,-0.0113,-0.0054,0,0,0,0,0]}]]